Погода в Ратно

Украина / Волынская область     51°39′57″N   24°31′32″E
темп.,
°C
ветер,
м/с
пор.,
м/с
влажн.,
%
обл.,
%
осадки,
мм/ч
давл.,
гПа
погр.,
м
14 мая, пт
пт1400:00+12юв3795100 0.1 1002255
03:00+12ююв41095100 0.3 1002368
06:00+11ююв4897100 0.3 1001349
09:00+14ю588010 0.3 1002567
12:00+17ю676967 0.9 10021299
15:00+19ю5762100 2.3 10021655
18:00+18юз577037 1.4 10021199
21:00+13ююз369020 2.0 1003102
15 мая, сб
сб1500:00+10юз379782 0.0 1005171
03:00+9юз349816 0.0 100572
06:00+11зсз4896100 0.3 1006446
09:00+11зсз5893100 0.4 1008644
12:00+13з5680100 0.0 1009833
15:00+16з6664100 0.1 10091218
18:00+15зсз466587 0.0 10101046
21:00+12зсз1277100 0.0 101015
16 мая, вс
вс1600:00+10ююв228667 0.0 101022
03:00+9ю349129 0.0 101164
06:00+9юв3794100 0.0 1010111
09:00+14ююв597696 0.0 1009494
12:00+19ююв796136 0.0 10081264
15:00+21ююв6854100 0.1 10061849
18:00+18ююз477498 1.3 1005636
21:00+13зюз3696100 5.2 1006195
17 мая, пн
пн1700:00+12зюз1197100 0.9 100610
03:00+12зюз4798100 2.4 1006388
06:00+10з379891 0.1 1007282
09:00+12з348635 0.1 1009395
12:00+17з34560 0.0 10081344
15:00+19зсз234757 0.0 10072023
18:00+18ююз2361100 0.0 1006110
21:00+15з377196 0.0 1007177
18 мая, вт
вт1800:00+11з3690100 0.0 1008144
03:00+11юз3890100 0.1 1008277
06:00+10юз2595100 0.0 1007126
09:00+12з3583100 0.0 1009374
12:00+14зсз3466100 0.0 1009838
15:00+17сз2454100 0.1 10081599
18:00+16сз3557100 0.1 10081414
21:00+12сз3675100 0.1 1009116